| time (UTC) | temp F | wind direction | speed MPH | gust MPH | rain 1hr in | rain 24hr in | rain mn in | humidity % | barometer mb |
| 20260510174508 | 0 | 0.0 | 0.0 | 0.00 | 0.00 | 0.00 | 1032.3 | ||
| 20260510173004 | 0 | 0.0 | 0.0 | 0.00 | 0.00 | 0.00 | 1032.4 | ||
| 20260510171612 | 0 | 0.0 | 0.0 | 0.00 | 0.00 | 0.00 | 1032.4 | ||
| 20260510170058 | 0 | 0.0 | 0.0 | 0.00 | 0.00 | 0.00 | 1032.4 | ||
| 20260510164608 | 38 | 116 | 0.0 | 0.0 | 0.00 | 0.00 | 0.00 | 84 | 1032.4 |
| 20260510163127 | 39 | 116 | 0.0 | 0.0 | 0.00 | 0.00 | 0.00 | 84 | 1032.5 |
| 20260510161550 | 39 | 115 | 0.0 | 0.0 | 0.00 | 0.00 | 0.00 | 84 | 1032.5 |
| 20260510160050 | 39 | 116 | 0.0 | 0.0 | 0.00 | 0.00 | 0.00 | 84 | 1032.5 |
| 20260510154548 | 39 | 116 | 0.0 | 0.0 | 0.00 | 0.00 | 0.00 | 84 | 1032.5 |
| 20260510153057 | 39 | 116 | 0.0 | 0.0 | 0.00 | 0.00 | 0.00 | 84 | 1032.5 |
| 20260510151541 | 40 | 116 | 0.0 | 0.0 | 0.00 | 0.00 | 0.00 | 84 | 1032.4 |
| 20260510150042 | 40 | 116 | 0.0 | 0.0 | 0.00 | 0.00 | 0.00 | 84 | 1032.4 |
| 20260510144544 | 40 | 116 | 0.0 | 0.0 | 0.00 | 0.00 | 0.00 | 84 | 1032.5 |
| 20260510143008 | 41 | 116 | 0.0 | 0.0 | 0.00 | 0.00 | 0.00 | 84 | 1032.6 |
| 20260510141504 | 41 | 116 | 0.0 | 0.0 | 0.00 | 0.00 | 0.00 | 84 | 1032.6 |
| 20260510140058 | 42 | 114 | 0.0 | 0.0 | 0.00 | 0.00 | 0.00 | 84 | 1032.6 |
| 20260510134557 | 43 | 114 | 0.0 | 0.0 | 0.00 | 0.00 | 0.00 | 83 | 1032.6 |
| 20260510133051 | 43 | 114 | 0.0 | 0.0 | 0.00 | 0.00 | 0.00 | 83 | 1032.7 |
| 20260510131554 | 44 | 114 | 0.0 | 0.0 | 0.00 | 0.00 | 0.00 | 83 | 1032.7 |
| 20260510130046 | 45 | 116 | 0.0 | 1.0 | 0.00 | 0.00 | 0.00 | 83 | 1032.6 |
| 20260510124545 | 45 | 114 | 0.0 | 0.0 | 0.00 | 0.00 | 0.00 | 83 | 1032.6 |
| 20260510123038 | 46 | 114 | 0.0 | 1.0 | 0.00 | 0.00 | 0.00 | 83 | 1032.7 |
| 20260510121537 | 47 | 114 | 0.0 | 2.0 | 0.00 | 0.00 | 0.00 | 82 | 1032.7 |
| 20260510120035 | 46 | 128 | 0.0 | 1.0 | 0.00 | 0.00 | 0.00 | 83 | 1032.7 |
| 20260510114530 | 47 | 128 | 0.0 | 0.0 | 0.00 | 0.00 | 0.00 | 83 | 1032.7 |
| 20260510113027 | 48 | 167 | 0.0 | 1.0 | 0.00 | 0.00 | 0.00 | 83 | 1032.5 |
| 20260510111527 | 48 | 133 | 0.0 | 1.0 | 0.00 | 0.00 | 0.00 | 83 | 1032.4 |
| 20260510110122 | 48 | 135 | 0.0 | 1.0 | 0.00 | 0.00 | 0.00 | 83 | 1032.3 |
| 20260510104553 | 49 | 130 | 0.0 | 2.0 | 0.00 | 0.00 | 0.00 | 83 | 1032.3 |
| 20260510103048 | 49 | 140 | 0.0 | 2.0 | 0.00 | 0.00 | 0.00 | 83 | 1032.3 |
| 20260510101546 | 50 | 135 | 0.0 | 2.0 | 0.00 | 0.00 | 0.00 | 83 | 1032.3 |
| 20260510094552 | 51 | 145 | 0.0 | 1.0 | 0.00 | 0.00 | 0.00 | 84 | 1032.2 |
| 20260510093039 | 52 | 145 | 0.0 | 1.0 | 0.00 | 0.00 | 0.00 | 84 | 1032.1 |
| 20260510091533 | 53 | 143 | 0.0 | 1.0 | 0.00 | 0.00 | 0.00 | 85 | 1032.0 |
| 20260510090041 | 54 | 143 | 0.0 | 1.0 | 0.00 | 0.00 | 0.00 | 85 | 1031.9 |
| 20260510084532 | 54 | 143 | 0.0 | 0.0 | 0.00 | 0.00 | 0.00 | 85 | 1031.7 |
| 20260510083033 | 54 | 143 | 0.0 | 0.0 | 0.00 | 0.00 | 0.00 | 85 | 1031.6 |
| 20260510081503 | 54 | 143 | 0.0 | 0.0 | 0.00 | 0.00 | 0.00 | 85 | 1031.5 |
| 20260510080108 | 55 | 143 | 0.0 | 1.0 | 0.00 | 0.00 | 0.00 | 85 | 1031.3 |
| 20260510074557 | 55 | 143 | 0.0 | 0.0 | 0.00 | 0.00 | 0.00 | 85 | 1031.2 |
| 20260510073104 | 56 | 143 | 0.0 | 0.0 | 0.00 | 0.00 | 0.00 | 84 | 1031.1 |
| 20260510071556 | 57 | 143 | 0.0 | 0.0 | 0.00 | 0.00 | 0.00 | 84 | 1031.0 |
| 20260510070057 | 57 | 144 | 0.0 | 2.0 | 0.00 | 0.00 | 0.00 | 82 | 1030.8 |
| 20260510064554 | 57 | 166 | 1.0 | 3.0 | 0.00 | 0.00 | 0.00 | 81 | 1030.7 |
| 20260510063052 | 58 | 188 | 0.0 | 3.0 | 0.00 | 0.00 | 0.00 | 80 | 1030.7 |
| 20260510061555 | 58 | 135 | 0.0 | 4.0 | 0.00 | 0.00 | 0.00 | 79 | 1030.5 |
| 20260510060053 | 59 | 147 | 0.0 | 3.0 | 0.00 | 0.00 | 0.00 | 79 | 1030.5 |
| 20260510054650 | 59 | 118 | 0.0 | 6.0 | 0.00 | 0.00 | 0.00 | 78 | 1030.5 |
| 20260510053046 | 59 | 137 | 0.0 | 3.0 | 0.00 | 0.00 | 0.00 | 76 | 1030.4 |
| 20260510051548 | 60 | 83 | 0.0 | 2.0 | 0.00 | 0.00 | 0.00 | 79 | 1030.2 |
| 20260510050044 | 61 | 337 | 0.0 | 1.0 | 0.00 | 0.00 | 0.00 | 77 | 1030.2 |
| 20260510044543 | 62 | 338 | 0.0 | 3.0 | 0.00 | 0.00 | 0.00 | 72 | 1030.1 |
| 20260510043141 | 62 | 313 | 1.0 | 3.0 | 0.00 | 0.00 | 0.00 | 72 | 1030.3 |
| 20260510041537 | 61 | 351 | 0.0 | 4.0 | 0.00 | 0.00 | 0.00 | 72 | 1030.3 |
| 20260510040035 | 61 | 342 | 0.0 | 3.0 | 0.00 | 0.00 | 0.00 | 73 | 1030.5 |
| 20260510034502 | 59 | 335 | 0.0 | 3.0 | 0.00 | 0.00 | 0.00 | 77 | 1030.5 |
| 20260510033002 | 58 | 44 | 0.0 | 1.0 | 0.00 | 0.00 | 0.00 | 79 | 1030.5 |
| 20260510031622 | 59 | 45 | 0.0 | 2.0 | 0.00 | 0.00 | 0.00 | 76 | 1030.6 |
| 20260510024556 | 59 | 334 | 0.0 | 4.0 | 0.00 | 0.00 | 0.00 | 76 | 1030.9 |
| 20260510023054 | 59 | 355 | 1.0 | 5.0 | 0.00 | 0.00 | 0.00 | 73 | 1031.2 |
| 20260510021523 | 59 | 339 | 0.0 | 2.0 | 0.00 | 0.00 | 0.00 | 77 | 1031.4 |
| 20260510020022 | 59 | 339 | 1.0 | 2.0 | 0.00 | 0.00 | 0.00 | 76 | 1031.6 |
| 20260510014517 | 58 | 26 | 0.0 | 1.0 | 0.00 | 0.00 | 0.00 | 76 | 1031.8 |
| 20260510013017 | 59 | 30 | 0.0 | 1.0 | 0.00 | 0.00 | 0.00 | 75 | 1032.0 |
| 20260510011533 | 59 | 20 | 0.0 | 1.0 | 0.00 | 0.00 | 0.00 | 75 | 1032.1 |
| 20260510010013 | 58 | 351 | 0.0 | 0.0 | 0.00 | 0.00 | 0.00 | 79 | 1032.1 |
| 20260510004509 | 57 | 9 | 0.0 | 0.0 | 0.00 | 0.00 | 0.00 | 81 | 1032.1 |
| 20260510003004 | 56 | 352 | 0.0 | 1.0 | 0.00 | 0.00 | 0.00 | 84 | 1032.1 |
| 20260510001502 | 55 | 355 | 0.0 | 1.0 | 0.00 | 0.00 | 0.00 | 85 | 1032.1 |
| 20260510000107 | 55 | 41 | 0.0 | 1.0 | 0.00 | 0.00 | 0.00 | 82 | 1032.1 |
| 20260509234544 | 54 | 41 | 0.0 | 1.0 | 0.00 | 0.00 | 0.00 | 82 | 1032.1 |
| 20260509233027 | 54 | 159 | 0.0 | 0.0 | 0.00 | 0.00 | 0.00 | 80 | 1032.0 |
| 20260509231552 | 53 | 159 | 0.0 | 1.0 | 0.00 | 0.00 | 0.00 | 81 | 1032.0 |
| 20260509230051 | 53 | 170 | 0.0 | 1.0 | 0.00 | 0.00 | 0.00 | 80 | 1032.0 |
| 20260509224520 | 53 | 177 | 0.0 | 0.0 | 0.00 | 0.00 | 0.00 | 80 | 1031.9 |
| 20260509223018 | 52 | 177 | 0.0 | 0.0 | 0.00 | 0.00 | 0.00 | 80 | 1031.8 |
| 20260509221548 | 52 | 177 | 0.0 | 0.0 | 0.00 | 0.00 | 0.00 | 81 | 1031.6 |
| 20260509220044 | 52 | 119 | 0.0 | 0.0 | 0.00 | 0.00 | 0.00 | 81 | 1031.4 |
| 20260509214537 | 0 | 0.0 | 0.0 | 0.00 | 0.00 | 0.00 | 1031.2 | ||
| 20260509213038 | 0 | 0.0 | 0.0 | 0.00 | 0.00 | 0.00 | 1031.0 | ||
| 20260509211527 | 0 | 0.0 | 0.0 | 0.00 | 0.00 | 0.00 | 1030.7 | ||
| 20260509210031 | 0 | 0.0 | 0.0 | 0.00 | 0.00 | 0.00 | 1030.6 | ||
| 20260509204524 | 0 | 0.0 | 0.0 | 0.00 | 0.00 | 0.00 | 1030.4 | ||
| 20260509203013 | 0 | 0.0 | 0.0 | 0.00 | 0.00 | 0.00 | 1030.3 | ||
| 20260509201505 | 0 | 0.0 | 0.0 | 0.00 | 0.00 | 0.00 | 1030.2 | ||
| 20260509200001 | 0 | 0.0 | 0.0 | 0.00 | 0.00 | 0.00 | 1030.1 | ||
| 20260509194557 | 0 | 0.0 | 0.0 | 0.00 | 0.00 | 0.00 | 1030.0 | ||
| 20260509193051 | 0 | 0.0 | 0.0 | 0.00 | 0.00 | 0.00 | 1029.9 | ||
| 20260509191546 | 0 | 0.0 | 0.0 | 0.00 | 0.00 | 0.00 | 1029.8 | ||
| 20260509190044 | 0 | 0.0 | 0.0 | 0.00 | 0.00 | 0.00 | 1029.5 | ||
| 20260509184556 | 0 | 0.0 | 0.0 | 0.00 | 0.00 | 0.00 | 1029.4 | ||
| 20260509183041 | 0 | 0.0 | 0.0 | 0.00 | 0.00 | 0.00 | 1029.3 | ||
| 20260509181545 | 0 | 0.0 | 0.0 | 0.00 | 0.00 | 0.00 | 1029.2 | ||
| 20260509180033 | 0 | 0.0 | 0.0 | 0.00 | 0.00 | 0.00 | 1028.9 |